ARIANE 2 DEB, 28567

Orbit data source: Space-Track

ARIANE 2 DEB, 28567 is space debris in HEO originally from a launch on Fri, 27 Jan 1989 UTC launched from the French Guiana (FRGUI). Debris objects in space refer to the collection of defunct objects orbiting the Earth. Examples of debris include non-operational satellites, rocket bodies, and fragments generated from explosions, collisions, or faulty payload assembly.

Loading next visibility...
Identifier
28567, 1989-006AJ
Orbit
HEO
Last TLE update
18 hours ago
Origin
Manufacturer
EADS/LV
Mission
Spacecraft
Bus & Motor
Unknown
Mass
Unknown
Launch date (UTC)
1989-01-27 (36 years ago)
Launch vehicle
Unknown
Launch site
French Guiana (FRGUI)
Object type
Payload
Rocket body
Debris
Shape & HBR
Unknown
Radar Cross Section
Medium (>0.1 m² and <1 m²)

Expand to show TLE details & history

TLE from 18 hours ago
0 ARIANE 2 DEB
1 28567U 89006AJ  25181.63305070  .00000480  00000-0  31145-2 0  9990
2 28567   7.7763 107.2873 7106235  22.8895 357.0751  2.37785810112111
Epoch: 2025-06-30T15:11Z
TLE epoch observation values (Epoch: 2025-06-30T15:11:35.58Z)
Latitude
-0.00044°
Longitude
-39.60202°
Altitude
701.738 km
Speed
9.786 km/s
True Right ascension
07h 08m 56s
True Declination
0° 00' 02"
Sunlit
Object was in daylight at epoch
Visualization orbit readout
Latitude
-6.20992°
Longitude
-167.19117°
Altitude
24,384.39 km
Speed
3.017 km/s
Apparent Right ascension
22h 57m 17s
Apparent Declination
-15° 43' 24"
Sunlit
Object is in daylight
Visualization observer readout
Local Sidereal Time
20:54:57
Azimuth
146.487° SSE
Elevation
27.497°
Doppler factor
1
Orbital elements
Apogee altitude
34,190.859 km
Perigee altitude
484.691 km
Semi-major axis
23,715.912 km
Eccentricity
0.71062
Inclination
7.7763°
RAAN
107.2873°
Arg. of periapsis
22.8895°
True anomaly
Unknown
Mean anomaly
357.0751°
Eccentric anomaly
Unknown
Mean motion
0.59427 °/min
Orbital period
605.79 mins
BSTAR
0.0031145
Loading maneuver chart data...
Loading SW <> Apogee altitude chart data...
Loading historical data...
Loading historical data...
Loading historical data...
Loading historical data...
Loading historical data...
Loading historical data...
Loading historical data...

ARIANE 2 DEB Visibility forecast

Observer location: undefined°, undefined°

Span
Click to sort rows by Start time (UTC) header in descending order
Start Az.
Max El. time (UTC)
Max El. Az.
Max El.
End time (UTC)
End Az.
77 mins2025-07-01 09:16:41.733Z146.501° SSE2025-07-01 09:16:41.733Z146.501° SSE24.77°2025-07-01 10:33:41.733Z134.834° SE
43 mins2025-07-02 08:33:41.733Z247.408° WSW2025-07-02 09:16:41.733Z236.754° WSW21.243°2025-07-02 09:16:41.733Z236.754° WSW
|